W5HRH Weather Reports


Display with metric or nautical units.
time (UTC)temp
F
wind
direction
speed
MPH
gust
MPH
rain 1hr
in
rain 24hr
in
rain mn
in
humidity
%
barometer
mb
20260903011537 88 198 2.0 10.0 0.00 0.00 0.00 64 1014.2
20260903011037 88 167 4.0 13.0 0.00 0.00 0.00 64 1014.1
20260903010536 89 163 3.0 12.0 0.00 0.00 0.00 63 1013.9
20260903010036 89 159 5.0 16.0 0.00 0.00 0.00 62 1014.1
20260903005536 89 197 5.0 16.0 0.00 0.00 0.00 63 1013.7
20260903005035 89 168 5.0 17.0 0.00 0.00 0.00 64 1013.5
20260903004536 89 186 6.0 17.0 0.00 0.00 0.00 64 1013.4
20260903004035 89 105 8.0 17.0 0.00 0.00 0.00 64 1013.4
20260903003535 90 171 5.0 12.0 0.00 0.00 0.00 63 1013.4
20260903003135 90 187 6.0 12.0 0.00 0.00 0.00 63 1013.4
20260903002535 90 171 4.0 12.0 0.00 0.00 0.00 63 1013.3
20260903002035 90 184 4.0 15.0 0.00 0.00 0.00 62 1013.2
20260903001534 91 167 5.0 14.0 0.00 0.00 0.00 62 1013.2
20260903001041 91 180 6.0 14.0 0.00 0.00 0.00 61 1013.0
20260903000534 91 205 4.0 10.0 0.00 0.00 0.00 61 1012.7
20260903000036 91 136 4.0 16.0 0.00 0.00 0.00 62 1012.8
20260902235534 91 172 4.0 16.0 0.00 0.00 0.00 62 1012.9
20260902235034 92 153 6.0 12.0 0.00 0.00 0.00 63 1012.9
20260902234533 92 186 4.0 12.0 0.00 0.00 0.00 63 1012.9
20260902234037 92 199 6.0 12.0 0.00 0.00 0.00 63 1012.9
20260902233533 92 157 2.0 12.0 0.00 0.00 0.00 63 1012.9
20260902233033 92 184 2.0 12.0 0.00 0.00 0.00 63 1012.8
20260902232533 92 140 6.0 12.0 0.00 0.00 0.00 63 1012.9
20260902232032 92 199 3.0 15.0 0.00 0.00 0.00 63 1012.9
20260902231534 93 169 4.0 15.0 0.00 0.00 0.00 63 1012.8
20260902231033 93 215 3.0 15.0 0.00 0.00 0.00 62 1012.8
20260902230532 93 214 6.0 15.0 0.00 0.00 0.00 62 1012.8
20260902230032 93 141 4.0 14.0 0.00 0.00 0.00 62 1012.7
20260902225532 94 203 5.0 14.0 0.00 0.00 0.00 61 1012.7
20260902225035 94 140 6.0 13.0 0.00 0.00 0.00 61 1012.6
20260902224534 94 150 3.0 12.0 0.00 0.00 0.00 60 1012.6
20260902224030 94 188 3.0 12.0 0.00 0.00 0.00 60 1012.7
20260902223530 94 147 5.0 12.0 0.00 0.00 0.00 59 1012.8
20260902223030 94 192 6.0 9.0 0.00 0.00 0.00 59 1012.8
20260902222532 94 115 6.0 11.0 0.00 0.00 0.00 59 1012.6
20260902222030 94 180 3.0 11.0 0.00 0.00 0.00 60 1012.8
20260902221535 94 154 5.0 11.0 0.00 0.00 0.00 59 1012.9
20260902221030 94 215 5.0 11.0 0.00 0.00 0.00 60 1013.0
20260902220526 94 163 2.0 11.0 0.00 0.00 0.00 60 1012.9
20260902220040 94 173 6.0 12.0 0.00 0.00 0.00 60 1012.8
20260902215526 94 159 4.0 12.0 0.00 0.00 0.00 60 1012.8
20260902215024 94 160 3.0 9.0 0.00 0.00 0.00 60 1012.9
20260902214524 94 183 3.0 10.0 0.00 0.00 0.00 60 1013.0
20260902214024 95 163 5.0 10.0 0.00 0.00 0.00 60 1013.0
20260902213522 94 163 3.0 8.0 0.00 0.00 0.00 60 1013.0
20260902213022 94 206 3.0 9.0 0.00 0.00 0.00 60 1013.0
20260902212521 94 199 3.0 7.0 0.00 0.00 0.00 60 1013.0
20260902212021 95 204 4.0 8.0 0.00 0.00 0.00 59 1013.1
20260902211520 95 205 4.0 7.0 0.00 0.00 0.00 59 1013.1
20260902211019 95 169 2.0 9.0 0.00 0.00 0.00 59 1013.1
20260902210519 95 155 5.0 12.0 0.00 0.00 0.00 59 1013.2
20260902210122 95 130 5.0 12.0 0.00 0.00 0.00 59 1013.1
20260902205518 95 180 1.0 10.0 0.00 0.00 0.00 59 1013.3
20260902205016 95 178 3.0 12.0 0.00 0.00 0.00 58 1013.4
20260902204517 95 189 4.0 12.0 0.00 0.00 0.00 59 1013.3
20260902204019 95 173 5.0 10.0 0.00 0.00 0.00 58 1013.5
20260902203514 95 184 3.0 13.0 0.00 0.00 0.00 58 1013.6
20260902203013 95 171 6.0 13.0 0.00 0.00 0.00 57 1013.6
20260902202512 95 167 2.0 12.0 0.00 0.00 0.00 58 1013.6
20260902202011 96 163 6.0 12.0 0.00 0.00 0.00 57 1013.4
20260902201511 96 200 4.0 7.0 0.00 0.00 0.00 57 1013.6
20260902201008 96 185 1.0 4.0 0.00 0.00 0.00 56 1013.7
20260902200507 96 223 1.0 4.0 0.00 0.00 0.00 59 1013.8
20260902200009 96 185 1.0 3.0 0.00 0.00 0.00 58 1014.0
20260902195504 95 247 1.0 5.0 0.00 0.00 0.00 58 1014.1
20260902195003 95 202 1.0 5.0 0.00 0.00 0.00 59 1014.4
20260902194501 95 183 1.0 4.0 0.00 0.00 0.00 59 1014.3
20260902194003 94 198 2.0 4.0 0.00 0.00 0.00 59 1014.5
20260902193559 94 161 1.0 7.0 0.00 0.00 0.00 59 1014.5
20260902193059 94 221 2.0 7.0 0.00 0.00 0.00 60 1014.6
20260902192558 94 227 1.0 3.0 0.00 0.00 0.00 60 1014.6
20260902192057 94 236 1.0 5.0 0.00 0.00 0.00 60 1014.6
20260902191603 94 217 1.0 5.0 0.00 0.00 0.00 60 1014.7
20260902191055 93 236 1.0 3.0 0.00 0.00 0.00 61 1014.7
20260902190554 93 231 1.0 4.0 0.00 0.00 0.00 61 1014.6
20260902190054 93 213 1.0 6.0 0.00 0.00 0.00 61 1014.7
20260902185554 93 220 1.0 6.0 0.00 0.00 0.00 62 1014.7
20260902185053 93 231 2.0 10.0 0.00 0.00 0.00 61 1014.9
20260902184553 93 206 2.0 5.0 0.00 0.00 0.00 62 1015.0
20260902184051 93 170 1.0 11.0 0.00 0.00 0.00 62 1015.1
20260902183552 93 215 3.0 11.0 0.00 0.00 0.00 62 1015.1
20260902183051 93 223 3.0 11.0 0.00 0.00 0.00 62 1015.2
20260902182549 93 273 1.0 10.0 0.00 0.00 0.00 64 1015.4
20260902182050 92 182 5.0 10.0 0.00 0.00 0.00 63 1015.6
20260902181555 92 246 1.0 7.0 0.00 0.00 0.00 65 1015.5
20260902181046 92 178 1.0 7.0 0.00 0.00 0.00 66 1015.7
20260902180544 91 227 1.0 4.0 0.00 0.00 0.00 67 1015.7
20260902180105 91 233 1.0 4.0 0.00 0.00 0.00 68 1016.0
20260902175542 91 250 1.0 6.0 0.00 0.00 0.00 69 1016.0
20260902175040 91 272 1.0 3.0 0.00 0.00 0.00 69 1016.1
20260902174538 91 190 1.0 5.0 0.00 0.00 0.00 70 1016.1
20260902174038 90 186 2.0 5.0 0.00 0.00 0.00 69 1016.2
20260902173537 90 153 1.0 4.0 0.00 0.00 0.00 70 1016.2
20260902173035 90 238 1.0 5.0 0.00 0.00 0.00 71 1016.3
20260902172535 90 219 2.0 5.0 0.00 0.00 0.00 70 1016.3
20260902172036 89 209 1.0 5.0 0.00 0.00 0.00 71 1016.5
20260902171534 90 223 2.0 7.0 0.00 0.00 0.00 71 1016.5
20260902171034 89 239 2.0 7.0 0.00 0.00 0.00 72 1016.7
20260902170532 89 229 1.0 4.0 0.00 0.00 0.00 73 1016.7
20260902170033 89 269 2.0 4.0 0.00 0.00 0.00 74 1016.8
20260902165530 89 263 2.0 4.0 0.00 0.00 0.00 74 1016.9
20260902165030 88 273 1.0 5.0 0.00 0.00 0.00 76 1016.9
20260902164530 88 245 1.0 5.0 0.00 0.00 0.00 77 1016.9
20260902164028 88 214 2.0 6.0 0.00 0.00 0.00 77 1017.1
20260902163528 87 235 1.0 9.0 0.00 0.00 0.00 77 1017.0
20260902163028 87 217 3.0 9.0 0.00 0.00 0.00 77 1017.1
20260902162526 87 258 2.0 6.0 0.00 0.00 0.00 78 1017.1
20260902162028 87 233 2.0 6.0 0.00 0.00 0.00 79 1017.1
20260902161524 86 275 1.0 4.0 0.00 0.00 0.00 82 1017.1
20260902161023 86 272 1.0 4.0 0.00 0.00 0.00 82 1017.1
20260902160521 85 228 1.0 4.0 0.00 0.00 0.00 83 1017.2
20260902160020 85 266 1.0 5.0 0.00 0.00 0.00 84 1017.2
20260902155519 84 219 2.0 5.0 0.00 0.00 0.00 84 1017.1
20260902155020 84 210 2.0 6.0 0.00 0.00 0.00 84 1017.1
20260902154521 84 260 0.0 7.0 0.00 0.00 0.00 84 1017.0
20260902154016 84 272 0.0 4.0 0.00 0.00 0.00 85 1016.9
20260902153516 84 217 0.0 3.0 0.00 0.00 0.00 84 1017.0
20260902153017 84 259 0.0 5.0 0.00 0.00 0.00 85 1016.9
20260902152512 84 234 0.0 5.0 0.00 0.00 0.00 86 1017.0
20260902152013 83 265 0.0 6.0 0.00 0.00 0.00 86 1017.0
20260902151517 83 239 0.0 6.0 0.00 0.00 0.00 86 1017.1
20260902151011 83 227 0.0 4.0 0.00 0.00 0.00 87 1017.1
20260902150509 83 200 1.0 4.0 0.00 0.00 0.00 87 1017.1
20260902150011 83 200 0.0 3.0 0.00 0.00 0.00 88 1017.1
20260902145507 83 223 1.0 3.0 0.00 0.00 0.00 88 1017.1
20260902145011 82 268 0.0 3.0 0.00 0.00 0.00 88 1017.2
20260902144517 82 293 0.0 2.0 0.00 0.00 0.00 89 1017.1
20260902144005 82 221 0.0 3.0 0.00 0.00 0.00 89 1017.0
20260902143505 82 221 1.0 3.0 0.00 0.00 0.00 89 1017.1
20260902143004 82 224 0.0 3.0 0.00 0.00 0.00 89 1017.1
20260902142504 82 168 0.0 2.0 0.00 0.00 0.00 90 1017.1
20260902142003 82 168 0.0 3.0 0.00 0.00 0.00 89 1017.0
20260902141600 82 128 0.0 3.0 0.00 0.00 0.00 90 1017.1
20260902141100 81 234 0.0 4.0 0.00 0.00 0.00 89 1017.2
20260902140559 81 279 1.0 4.0 0.00 0.00 0.00 90 1017.1
20260902140100 81 215 0.0 3.0 0.00 0.00 0.00 90 1016.9
20260902135601 81 236 0.0 3.0 0.00 0.00 0.00 90 1016.9
20260902135056 81 211 0.0 3.0 0.00 0.00 0.00 90 1016.9
20260902134558 81 211 0.0 3.0 0.00 0.00 0.00 90 1016.9
20260902134055 81 208 0.0 3.0 0.00 0.00 0.00 91 1016.9
20260902133555 81 271 0.0 2.0 0.00 0.00 0.00 91 1016.9
20260902133055 81 178 1.0 2.0 0.00 0.00 0.00 91 1016.8
20260902132557 81 224 0.0 1.0 0.00 0.00 0.00 91 1016.8
20260902132054 81 228 0.0 0.0 0.00 0.00 0.00 91 1016.9
20260902131555 81 227 0.0 1.0 0.00 0.00 0.00 91 1016.9
20260902131053 81 227 0.0 2.0 0.00 0.00 0.00 91 1016.8
20260902130552 80 227 0.0 4.0 0.00 0.00 0.00 91 1016.7
20260902130057 80 227 0.0 4.0 0.00 0.00 0.00 91 1016.6
20260902125552 80 209 0.0 4.0 0.00 0.00 0.00 91 1016.7
20260902125154 80 208 0.0 4.0 0.00 0.00 0.00 91 1016.5
20260902124551 80 190 0.0 3.0 0.00 0.00 0.00 91 1016.6
20260902124052 80 216 0.0 3.0 0.00 0.00 0.00 91 1016.4
20260902123551 80 205 0.0 0.0 0.00 0.00 0.00 91 1016.2
20260902123052 80 204 0.0 0.0 0.00 0.00 0.00 91 1016.0
20260902122548 80 209 0.0 0.0 0.00 0.00 0.00 91 1015.8
20260902122047 80 209 0.0 0.0 0.00 0.00 0.00 91 1015.6
20260902121547 80 211 0.0 0.0 0.00 0.00 0.00 91 1015.5
20260902121047 80 209 0.0 3.0 0.00 0.00 0.00 91 1015.4
20260902120547 80 225 0.0 3.0 0.00 0.00 0.00 91 1015.4
20260902120049 80 234 0.0 2.0 0.00 0.00 0.00 91 1015.3
20260902115545 80 234 0.0 3.0 0.00 0.00 0.00 91 1015.4
20260902115046 80 219 0.0 3.0 0.00 0.00 0.00 91 1015.4
20260902114550 80 209 1.0 3.0 0.00 0.00 0.00 91 1015.4
20260902114046 80 208 0.0 4.0 0.00 0.00 0.00 90 1015.3
20260902113545 80 221 0.0 4.0 0.00 0.00 0.00 90 1015.3
20260902113051 80 223 0.0 3.0 0.00 0.00 0.00 90 1015.3
20260902112545 80 192 0.0 3.0 0.00 0.00 0.00 90 1015.4
20260902112045 80 212 0.0 0.0 0.00 0.00 0.00 90 1015.3
20260902111547 80 229 0.0 0.0 0.00 0.00 0.00 90 1015.2
20260902111044 80 225 0.0 0.0 0.00 0.00 0.00 90 1015.3
20260902110545 80 229 0.0 0.0 0.00 0.00 0.00 90 1015.4
20260902110044 80 275 0.0 0.0 0.00 0.00 0.00 90 1015.3
20260902105546 80 229 0.0 0.0 0.00 0.00 0.00 90 1015.4
20260902105043 80 211 0.0 0.0 0.00 0.00 0.00 89 1015.4
20260902104545 80 209 0.0 0.0 0.00 0.00 0.00 89 1015.5
20260902104043 80 211 0.0 0.0 0.00 0.00 0.00 89 1015.5
20260902103543 80 211 0.0 0.0 0.00 0.00 0.00 89 1015.6
20260902103043 81 210 0.0 0.0 0.00 0.00 0.00 89 1015.5
20260902102543 80 209 0.0 0.0 0.00 0.00 0.00 89 1015.5
20260902102042 80 209 0.0 0.0 0.00 0.00 0.00 89 1015.5
20260902101541 81 211 0.0 0.0 0.00 0.00 0.00 89 1015.5
20260902101041 81 238 0.0 0.0 0.00 0.00 0.00 89 1015.3
20260902100541 81 238 0.0 0.0 0.00 0.00 0.00 88 1015.2
20260902100041 81 238 0.0 0.0 0.00 0.00 0.00 88 1015.2
20260902095541 81 238 0.0 3.0 0.00 0.00 0.00 88 1015.2
20260902095040 81 239 0.0 3.0 0.00 0.00 0.00 88 1015.2
20260902094540 81 211 0.0 3.0 0.00 0.00 0.00 88 1015.2
20260902094041 81 211 0.0 3.0 0.00 0.00 0.00 88 1015.2
20260902093541 81 225 0.0 3.0 0.00 0.00 0.00 88 1015.4
20260902093040 81 211 0.0 2.0 0.00 0.00 0.00 87 1015.3
20260902092540 81 211 0.0 2.0 0.00 0.00 0.00 87 1015.3
20260902092042 81 208 0.0 2.0 0.00 0.00 0.00 87 1015.3
20260902091549 81 208 0.0 2.0 0.00 0.00 0.00 87 1015.2
20260902091038 81 208 0.0 3.0 0.00 0.00 0.00 87 1015.2
20260902090538 81 205 0.0 2.0 0.00 0.00 0.00 87 1015.3
20260902090038 81 205 0.0 3.0 0.00 0.00 0.00 87 1015.2
20260902085537 81 199 0.0 3.0 0.00 0.00 0.00 86 1015.2
20260902085037 81 186 0.0 1.0 0.00 0.00 0.00 86 1015.2
20260902084538 81 186 0.0 2.0 0.00 0.00 0.00 86 1015.3
20260902084037 81 185 0.0 2.0 0.00 0.00 0.00 86 1015.3
20260902083537 81 184 0.0 2.0 0.00 0.00 0.00 86 1015.4
20260902083037 81 182 0.0 2.0 0.00 0.00 0.00 86 1015.4
20260902082537 81 182 0.0 2.0 0.00 0.00 0.00 86 1015.3
20260902082038 81 183 0.0 1.0 0.00 0.00 0.00 85 1015.3
20260902081536 81 183 0.0 1.0 0.00 0.00 0.00 85 1015.2
20260902081036 81 182 0.0 1.0 0.00 0.00 0.00 85 1015.4
20260902080535 81 179 0.0 1.0 0.00 0.00 0.00 85 1015.3
20260902080035 82 173 0.0 2.0 0.00 0.00 0.00 85 1015.4
20260902075537 81 231 0.0 1.0 0.00 0.00 0.00 85 1015.3
20260902075035 81 231 0.0 3.0 0.00 0.00 0.00 85 1015.3
20260902074535 81 234 0.0 3.0 0.00 0.00 0.00 85 1015.3
20260902074034 81 221 0.0 1.0 0.00 0.00 0.00 85 1015.4
20260902073533 81 220 0.0 1.0 0.00 0.00 0.00 85 1015.4
20260902073037 82 220 0.0 2.0 0.00 0.00 0.00 85 1015.6
20260902072532 81 220 0.0 2.0 0.00 0.00 0.00 85 1015.6
20260902072037 81 220 0.0 1.0 0.00 0.00 0.00 85 1015.6
20260902071531 81 221 0.0 1.0 0.00 0.00 0.00 85 1015.4
20260902071030 80 331 0.0 1.0 0.00 0.00 0.00 84 1015.4
20260902070531 80 328 0.0 1.0 0.00 0.00 0.00 83 1015.5
20260902070029 80 328 0.0 0.0 0.00 0.00 0.00 82 1015.4
20260902065528 80 328 0.0 0.0 0.00 0.00 0.00 82 1015.4
20260902065028 80 328 0.0 0.0 0.00 0.00 0.00 82 1015.4
20260902064528 80 328 0.0 0.0 0.00 0.00 0.00 82 1015.4
20260902064027 80 328 0.0 0.0 0.00 0.00 0.00 82 1015.4
20260902063527 80 328 0.0 0.0 0.00 0.00 0.00 82 1015.4
20260902063029 80 328 0.0 0.0 0.00 0.00 0.00 81 1015.5
20260902062528 80 328 0.0 0.0 0.00 0.00 0.00 81 1015.3
20260902062026 80 328 0.0 0.0 0.00 0.00 0.00 81 1015.3
20260902061541 80 328 0.0 0.0 0.00 0.00 0.00 81 1015.2
20260902061032 80 328 0.0 0.0 0.00 0.00 0.00 81 1015.2
20260902060525 80 328 0.0 0.0 0.00 0.00 0.00 81 1015.2
20260902060024 80 328 0.0 0.0 0.00 0.00 0.00 81 1015.2
20260902055525 80 328 0.0 0.0 0.00 0.00 0.00 81 1015.2
20260902055025 80 328 0.0 0.0 0.00 0.00 0.00 81 1015.2
20260902054526 80 328 0.0 0.0 0.00 0.00 0.00 81 1015.2
20260902054024 80 328 0.0 0.0 0.00 0.00 0.00 81 1015.2
20260902053527 80 328 0.0 1.0 0.00 0.00 0.00 81 1015.0
20260902053024 80 328 0.0 1.0 0.00 0.00 0.00 81 1015.0
20260902052522 80 328 0.0 0.0 0.00 0.00 0.00 81 1015.3
20260902052022 80 328 0.0 0.0 0.00 0.00 0.00 81 1015.2
20260902051521 80 328 0.0 0.0 0.00 0.00 0.00 81 1015.2
20260902051020 80 328 0.0 0.0 0.00 0.00 0.00 81 1015.3
20260902050521 80 328 0.0 0.0 0.00 0.00 0.00 81 1015.4
20260902050022 80 328 0.0 0.0 0.00 0.00 0.00 81 1015.4
20260902045520 80 329 0.0 0.0 0.00 0.00 0.00 82 1015.4
20260902045022 80 329 0.0 0.0 0.00 0.00 0.00 82 1015.4
20260902044519 80 329 0.0 0.0 0.00 0.00 0.00 82 1015.5
20260902044023 80 329 0.0 0.0 0.00 0.00 0.00 81 1015.5
20260902043518 80 329 0.0 0.0 0.00 0.00 0.00 81 1015.5
20260902043024 80 329 0.0 0.0 0.00 0.00 0.00 81 1015.6
20260902042521 80 329 0.0 0.0 0.00 0.00 0.00 81 1015.6
20260902042017 80 329 0.0 0.0 0.00 0.00 0.00 81 1015.7
20260902041518 80 329 0.0 0.0 0.00 0.00 0.00 81 1015.6
20260902041017 81 329 0.0 0.0 0.00 0.00 0.00 81 1015.6
20260902040517 81 329 0.0 0.0 0.00 0.00 0.00 81 1015.6
20260902040017 81 329 0.0 0.0 0.00 0.00 0.00 81 1015.6
20260902035516 81 329 0.0 0.0 0.00 0.00 0.00 81 1015.5
20260902035019 81 329 0.0 0.0 0.00 0.00 0.00 81 1015.6
20260902034519 81 329 0.0 0.0 0.00 0.00 0.00 81 1015.6
20260902034025 81 329 0.0 0.0 0.00 0.00 0.00 81 1015.6
20260902033516 81 329 0.0 0.0 0.00 0.00 0.00 81 1015.6
20260902033041 81 329 0.0 0.0 0.00 0.00 0.00 81 1015.7
20260902032517 81 329 0.0 0.0 0.00 0.00 0.00 81 1015.6
20260902032016 81 329 0.0 0.0 0.00 0.00 0.00 81 1015.6
20260902031516 81 329 0.0 0.0 0.00 0.00 0.00 81 1015.6
20260902031017 81 329 0.0 0.0 0.00 0.00 0.00 81 1015.4
20260902030515 81 329 0.0 0.0 0.00 0.00 0.00 81 1015.3
20260902030021 81 329 0.0 0.0 0.00 0.00 0.00 81 1015.2
20260902025517 81 329 0.0 0.0 0.00 0.00 0.00 80 1015.1
20260902025016 81 329 0.0 0.0 0.00 0.00 0.00 80 1015.0
20260902024518 81 329 0.0 0.0 0.00 0.00 0.00 80 1015.0
20260902024015 82 329 0.0 0.0 0.00 0.00 0.00 80 1014.9
20260902023515 82 329 0.0 0.0 0.00 0.00 0.00 80 1014.8
20260902023015 82 329 0.0 0.0 0.00 0.00 0.00 79 1014.8
20260902022515 82 329 0.0 0.0 0.00 0.00 0.00 79 1014.8
20260902022015 82 329 0.0 0.0 0.00 0.00 0.00 80 1014.7
20260902021523 82 329 0.0 0.0 0.00 0.00 0.00 80 1014.6
20260902021014 82 329 0.0 0.0 0.00 0.00 0.00 80 1014.5
20260902020513 82 329 0.0 0.0 0.00 0.00 0.00 79 1014.5
20260902020014 82 329 0.0 0.0 0.00 0.00 0.00 79 1014.5
20260902015513 82 329 0.0 0.0 0.00 0.00 0.00 79 1014.4
20260902015014 82 329 0.0 0.0 0.00 0.00 0.00 79 1014.2
20260902014514 82 329 0.0 2.0 0.00 0.00 0.00 79 1014.2
20260902014014 82 329 0.0 2.0 0.00 0.00 0.00 79 1014.0
20260902013513 82 328 0.0 2.0 0.00 0.00 0.00 79 1014.0
20260902013013 82 326 1.0 2.0 0.00 0.00 0.00 79 1014.2
20260902012512 82 311 0.0 3.0 0.00 0.00 0.00 78 1014.0